This is the latest recevied weather packets stored in our database for station/object NR6G-12. If no packets are shown the sender has not sent any weather packets the latest 10 day(s).
| Time | Temp. | Humidity | Pressure | Rain* | Wind** | Luminosity | Snow |
|---|---|---|---|---|---|---|---|
| 1787946551 | 24.44° C | 51% | 1021.4 hPa | 0 mm | - | - | - |
| 1787946191 | 24.44° C | 53% | 1021.4 hPa | 0 mm | - | - | - |
| 1787945833 | 24.44° C | 52% | 1021.3 hPa | 0 mm | - | - | - |
| 1787945471 | 23.89° C | 54% | 1021.3 hPa | 0 mm | - | - | - |
| 1787945111 | 23.33° C | 56% | 1021.4 hPa | 0 mm | - | - | - |
| 1787944751 | 23.33° C | 54% | 1021.5 hPa | 0 mm | - | - | - |
| 1787944392 | 23.89° C | 53% | 1021.5 hPa | 0 mm | - | - | - |
| 1787944031 | 23.89° C | 54% | 1021.5 hPa | 0 mm | - | - | - |
| 1787943671 | 23.33° C | 57% | 1021.6 hPa | 0 mm | - | - | - |
| 1787943311 | 22.78° C | 56% | 1021.5 hPa | 0 mm | - | - | - |
| 1787942952 | 22.78° C | 57% | 1021.5 hPa | 0 mm | - | - | - |
| 1787942591 | 22.78° C | 57% | 1021.6 hPa | 0 mm | - | - | - |
| 1787942231 | 22.78° C | 58% | 1021.6 hPa | 0 mm | - | - | - |
| 1787941871 | 22.78° C | 56% | 1021.6 hPa | 0 mm | - | - | - |
| 1787941511 | 22.22° C | 54% | 1021.6 hPa | 0 mm | - | - | - |
| 1787941151 | 22.78° C | 57% | 1021.3 hPa | 0 mm | - | - | - |
| 1787940791 | 22.78° C | 56% | 1021.3 hPa | 0 mm | - | - | - |
| 1787940431 | 23.33° C | 57% | 1021.4 hPa | 0 mm | - | - | - |
| 1787940071 | 22.78° C | 58% | 1021.7 hPa | 0 mm | - | - | - |
| 1787939711 | 22.22° C | 58% | 1021.9 hPa | 0 mm | - | - | - |
| 1787939351 | 22.78° C | 58% | 1021.9 hPa | 0 mm | - | - | - |
| 1787938991 | 22.78° C | 57% | 1021.9 hPa | 0 mm | - | - | - |
| 1787938631 | 22.78° C | 53% | 1021.9 hPa | 0 mm | - | - | - |
| 1787938271 | 22.22° C | 56% | 1021.7 hPa | 0 mm | - | - | - |
| 1787937911 | 21.67° C | 57% | 1021.7 hPa | 0 mm | - | - | - |
* Rain latest hour (hover to see other rain measurements)
** Current wind speed in m/s (hover to see current wind gust speed)